Salina, KS

2:08 AM CST on November 20, 2017 (GMT -0600)
Salina Municipal

Weather History for KSLN - October, 2013

Change the Weather History Date:

Saturday, October 26, 2013

  Actual Average Record
Temperature  
Mean Temperature 48 °F 54 °F  
Max Temperature 64 °F 65 °F 91 °F (1939)
Min Temperature 31 °F 42 °F 20 °F (1898)
Degree Days  
Heating Degree Days 17 12  
Month to date heating degree days 238 205  
Since 1 July heating degree days 250 257  
Cooling Degree Days 0 0  
Month to date cooling degree days 55 32  
Year to date cooling degree days 1750 1644  
Moisture  
Dew Point 32 °F    
Average Humidity 55    
Maximum Humidity 86    
Minimum Humidity 23    
Precipitation  
Precipitation 0.00 in 0.05 in 1.24 in (1976)
Month to date precipitation 0.80 2.01  
Year to date precipitation 28.67 29.05  
Sea Level Pressure  
Sea Level Pressure 30.17 in    
Wind  
Wind Speed 7 mph (NNW)    
Max Wind Speed 20 mph    
Max Gust Speed 29 mph    
Visibility 10 miles    
Events      
T = Trace of Precipitation, MM = Missing Value Source: NWS Daily Summary

Daily Weather History Graph

Daily Weather History Graph

Search for Another Location

Airport or City:

Trip Planner

Search our weather history database for the weather conditions in past years. The results will help you decide how hot, cold, wet, or windy it might be!

Date:

Astronomy

Oct. 26, 2013 Rise Set
Actual Time 7:51 AM CDT 6:36 PM CDT
Civil Twilight 7:24 AM CDT 7:04 PM CDT
Nautical Twilight 6:52 AM CDT 7:35 PM CDT
Astronomical Twilight 6:22 AM CDT 8:06 PM CDT
Moon 12:00 AM CDT (10/26) 2:07 PM CDT (10/26)
Length of Visible Light 11h 40m
Length of Day
10h 45m
Waning Gibbous, 53% of the Moon is Illuminated
Oct 26
Waning Gibbous
Oct 26
Last Quarter
Nov 3
New
Nov 9
First Quarter
Nov 17
Full

Hourly Weather History & Observations

Time (CDT) Temp. Windchill Dew Point Humidity Pressure Visibility Wind Dir Wind Speed Gust Speed Precip Events Conditions
12:53 AM 46.9 °F - 37.9 °F 71% 30.11 in 10.0 mi South 6.9 mph - N/A   Clear
1:53 AM 48.9 °F - 39.9 °F 71% 30.09 in 10.0 mi South 10.4 mph - N/A   Clear
2:53 AM 48.0 °F - 39.9 °F 74% 30.09 in 10.0 mi South 4.6 mph - N/A   Clear
3:53 AM 45.0 °F 42.6 °F 39.0 °F 80% 30.08 in 10.0 mi South 4.6 mph - N/A   Clear
4:53 AM 46.0 °F - 39.9 °F 79% 30.08 in 10.0 mi Calm Calm - N/A   Clear
5:53 AM 44.1 °F - 37.9 °F 79% 30.10 in 10.0 mi Calm Calm - N/A   Clear
6:53 AM 43.0 °F - 37.9 °F 82% 30.12 in 10.0 mi Calm Calm - N/A   Clear
7:53 AM 41.0 °F 39.0 °F 37.9 °F 89% 30.15 in 10.0 mi NW 3.5 mph - N/A   Clear
8:53 AM 44.1 °F 40.8 °F 39.9 °F 85% 30.19 in 10.0 mi NNW 5.8 mph - N/A   Clear
9:53 AM 50.0 °F - 39.9 °F 68% 30.22 in 10.0 mi North 10.4 mph - N/A   Clear
10:53 AM 57.0 °F - 33.1 °F 40% 30.23 in 10.0 mi NNE 18.4 mph 21.9 mph N/A   Clear
11:53 AM 59.0 °F - 30.0 °F 33% 30.24 in 10.0 mi NNE 17.3 mph 23.0 mph N/A   Clear
12:53 PM 62.1 °F - 25.0 °F 24% 30.23 in 10.0 mi North 13.8 mph 23.0 mph N/A   Clear
1:53 PM 62.1 °F - 25.0 °F 24% 30.21 in 10.0 mi North 16.1 mph 28.8 mph N/A   Clear
2:53 PM 63.0 °F - 24.1 °F 23% 30.19 in 10.0 mi North 17.3 mph - N/A   Clear
3:53 PM 63.0 °F - 26.1 °F 25% 30.19 in 10.0 mi NNW 13.8 mph - N/A   Clear
4:53 PM 61.0 °F - 24.1 °F 24% 30.19 in 10.0 mi North 16.1 mph - N/A   Clear
5:53 PM 57.0 °F - 25.0 °F 29% 30.19 in 10.0 mi North 12.7 mph - N/A   Clear
6:53 PM 50.0 °F - 26.1 °F 39% 30.20 in 10.0 mi North 4.6 mph - N/A   Clear
7:53 PM 48.9 °F - 26.1 °F 41% 30.21 in 10.0 mi North 4.6 mph - N/A   Clear
8:53 PM 45.0 °F - 26.1 °F 48% 30.22 in 10.0 mi Calm Calm - N/A   Clear
9:53 PM 42.1 °F - 26.1 °F 53% 30.22 in 10.0 mi Calm Calm - N/A   Clear
10:53 PM 36.0 °F 33.3 °F 27.0 °F 70% 30.22 in 10.0 mi SW 3.5 mph - N/A   Clear
11:53 PM 32.0 °F - 26.1 °F 79% 30.21 in 10.0 mi Calm Calm - N/A   Clear